Time,TemperatureF,DewpointF,PressureIn,WindDirection,WindDirectionDegrees,WindSpeedMPH,WindSpeedGustMPH,Humidity,HourlyPrecipIn,Conditions,Clouds,dailyrainin,SoftwareType,DateUTC
2013-02-15 00:03:00,45.1,36.6,30.24,NNE,14,20.0,26.0,72,0.00,,---,0.00,VWS V14.01,2013-02-15 06:03:00,
2013-02-15 00:08:00,45.0,36.9,30.24,NNE,15,20.0,26.0,73,0.00,,---,0.00,VWS V14.01,2013-02-15 06:08:00,
2013-02-15 00:13:00,44.8,37.0,30.25,North,356,19.0,26.0,74,0.00,,---,0.00,VWS V14.01,2013-02-15 06:13:00,
2013-02-15 00:18:00,44.7,36.9,30.25,NNE,12,14.0,26.0,74,0.00,,---,0.00,VWS V14.01,2013-02-15 06:18:00,
2013-02-15 00:23:00,44.5,37.1,30.25,NNW,345,14.0,26.0,75,0.00,,---,0.00,VWS V14.01,2013-02-15 06:23:00,
2013-02-15 00:29:00,44.4,37.0,30.26,NNE,12,12.0,26.0,75,0.00,,---,0.00,VWS V14.01,2013-02-15 06:29:00,
2013-02-15 00:34:00,44.3,37.2,30.26,North,4,16.0,19.0,76,0.00,,---,0.00,VWS V14.01,2013-02-15 06:34:00,
2013-02-15 00:39:00,44.2,36.8,30.26,NNW,330,10.0,21.0,75,0.00,,---,0.00,VWS V14.01,2013-02-15 06:39:00,
2013-02-15 00:44:00,44.1,36.7,30.26,NNE,27,18.0,21.0,75,0.00,,---,0.00,VWS V14.01,2013-02-15 06:44:00,
2013-02-15 00:49:00,44.0,36.6,30.27,NNE,12,18.0,22.0,75,0.00,,---,0.00,VWS V14.01,2013-02-15 06:49:00,
2013-02-15 00:54:00,43.9,36.2,30.27,North,357,14.0,22.0,74,0.00,,---,0.00,VWS V14.01,2013-02-15 06:54:00,
2013-02-15 00:59:00,43.8,36.1,30.27,NNE,25,19.0,24.0,74,0.00,,---,0.00,VWS V14.01,2013-02-15 06:59:00,
2013-02-15 01:04:00,43.7,36.3,30.27,NNW,347,19.0,25.0,75,0.00,,---,0.00,VWS V14.01,2013-02-15 07:04:00,
2013-02-15 01:09:00,43.6,36.2,30.28,North,355,20.0,25.0,75,0.00,,---,0.00,VWS V14.01,2013-02-15 07:09:00,
2013-02-15 01:14:00,43.4,36.3,30.28,North,360,15.0,25.0,76,0.00,,---,0.00,VWS V14.01,2013-02-15 07:14:00,
2013-02-15 01:20:00,43.1,36.4,30.28,NNE,19,12.0,25.0,77,0.00,,---,0.00,VWS V14.01,2013-02-15 07:20:00,
2013-02-15 01:25:00,42.9,36.2,30.29,North,355,15.0,25.0,77,0.00,,---,0.00,VWS V14.01,2013-02-15 07:25:00,
2013-02-15 01:30:00,42.6,36.2,30.29,North,3,20.0,25.0,78,0.00,,---,0.00,VWS V14.01,2013-02-15 07:30:00,
2013-02-15 01:35:00,42.4,36.4,30.29,NNW,347,13.0,22.0,79,0.00,,---,0.00,VWS V14.01,2013-02-15 07:35:00,
2013-02-15 01:40:00,42.0,36.0,30.29,North,352,14.0,22.0,79,0.00,,---,0.00,VWS V14.01,2013-02-15 07:40:00,
2013-02-15 01:45:00,41.8,36.1,30.30,North,359,16.0,22.0,80,0.00,,---,0.00,VWS V14.01,2013-02-15 07:45:00,
2013-02-15 01:50:00,41.5,36.1,30.30,NE,37,12.0,22.0,81,0.00,,---,0.00,VWS V14.01,2013-02-15 07:50:00,
2013-02-15 01:55:00,41.3,35.9,30.30,NNW,342,13.0,22.0,81,0.00,,---,0.00,VWS V14.01,2013-02-15 07:55:00,
2013-02-15 02:00:00,41.2,35.8,30.30,NNW,340,11.0,22.0,81,0.00,,---,0.00,VWS V14.01,2013-02-15 08:00:00,
2013-02-15 02:06:00,41.0,35.6,30.31,NNW,342,13.0,19.0,81,0.00,,---,0.00,VWS V14.01,2013-02-15 08:06:00,
2013-02-15 02:11:00,40.8,35.4,30.31,NNW,327,10.0,19.0,81,0.00,,---,0.00,VWS V14.01,2013-02-15 08:11:00,
2013-02-15 02:16:00,40.6,35.5,30.31,NW,315,13.0,19.0,82,0.00,,---,0.00,VWS V14.01,2013-02-15 08:16:00,
2013-02-15 02:21:00,40.3,35.2,30.31,NNW,339,9.0,19.0,82,0.00,,---,0.00,VWS V14.01,2013-02-15 08:21:00,
2013-02-15 02:26:00,40.0,35.0,30.30,NNW,333,10.0,19.0,82,0.00,,---,0.00,VWS V14.01,2013-02-15 08:26:00,
2013-02-15 02:31:00,39.7,34.7,30.30,NNW,342,9.0,10.0,82,0.00,,---,0.00,VWS V14.01,2013-02-15 08:31:00,
2013-02-15 02:36:00,39.5,34.8,30.30,NNW,345,9.0,14.0,83,0.00,,---,0.00,VWS V14.01,2013-02-15 08:36:00,
2013-02-15 02:41:00,39.4,34.7,30.30,North,8,12.0,18.0,83,0.00,,---,0.00,VWS V14.01,2013-02-15 08:41:00,
2013-02-15 02:46:00,39.3,34.6,30.30,North,1,13.0,18.0,83,0.00,,---,0.00,VWS V14.01,2013-02-15 08:46:00,
2013-02-15 02:51:00,39.2,34.5,30.30,NNW,336,10.0,18.0,83,0.00,,---,0.00,VWS V14.01,2013-02-15 08:51:00,
2013-02-15 02:57:00,39.0,34.3,30.30,North,352,10.0,18.0,83,0.00,,---,0.00,VWS V14.01,2013-02-15 08:57:00,
2013-02-15 03:02:00,38.7,34.0,30.30,NNW,344,13.0,15.0,83,0.00,,---,0.00,VWS V14.01,2013-02-15 09:02:00,
2013-02-15 03:07:00,38.7,34.0,30.30,NNW,327,13.0,18.0,83,0.00,,---,0.00,VWS V14.01,2013-02-15 09:07:00,
2013-02-15 03:12:00,38.6,33.9,30.31,NNW,342,13.0,18.0,83,0.00,,---,0.00,VWS V14.01,2013-02-15 09:12:00,
2013-02-15 03:17:00,38.4,34.0,30.31,NW,319,9.0,18.0,84,0.00,,---,0.00,VWS V14.01,2013-02-15 09:17:00,
2013-02-15 03:22:00,38.4,34.0,30.31,North,349,12.0,18.0,84,0.00,,---,0.00,VWS V14.01,2013-02-15 09:22:00,
2013-02-15 03:27:00,38.4,33.7,30.31,North,356,9.0,18.0,83,0.00,,---,0.00,VWS V14.01,2013-02-15 09:27:00,
2013-02-15 03:32:00,38.2,33.5,30.31,North,349,10.0,14.0,83,0.00,,---,0.00,VWS V14.01,2013-02-15 09:32:00,
2013-02-15 03:37:00,38.3,33.6,30.31,North,9,12.0,20.0,83,0.00,,---,0.00,VWS V14.01,2013-02-15 09:37:00,
2013-02-15 03:43:00,38.3,33.3,30.31,North,351,14.0,23.0,82,0.00,,---,0.00,VWS V14.01,2013-02-15 09:43:00,
2013-02-15 03:48:00,38.4,33.1,30.31,NNW,345,12.0,23.0,81,0.00,,---,0.00,VWS V14.01,2013-02-15 09:48:00,
2013-02-15 03:53:00,38.3,33.0,30.31,NW,315,14.0,23.0,81,0.00,,---,0.00,VWS V14.01,2013-02-15 09:53:00,
2013-02-15 03:58:00,38.1,32.5,30.31,North,356,13.0,23.0,80,0.00,,---,0.00,VWS V14.01,2013-02-15 09:58:00,
2013-02-15 04:03:00,38.0,32.4,30.31,NNE,21,14.0,18.0,80,0.00,,---,0.00,VWS V14.01,2013-02-15 10:03:00,
2013-02-15 04:08:00,37.8,32.5,30.31,NNW,340,10.0,18.0,81,0.00,,---,0.00,VWS V14.01,2013-02-15 10:08:00,
2013-02-15 04:13:00,37.7,32.4,30.31,North,352,15.0,19.0,81,0.00,,---,0.00,VWS V14.01,2013-02-15 10:13:00,
2013-02-15 04:18:00,37.6,32.3,30.32,North,11,14.0,19.0,81,0.00,,---,0.00,VWS V14.01,2013-02-15 10:18:00,
2013-02-15 04:23:00,37.4,32.1,30.32,NNW,347,16.0,19.0,81,0.00,,---,0.00,VWS V14.01,2013-02-15 10:23:00,
2013-02-15 04:29:00,37.2,32.2,30.32,NW,321,8.0,20.0,82,0.00,,---,0.00,VWS V14.01,2013-02-15 10:29:00,
2013-02-15 04:34:00,37.1,32.1,30.33,NNW,328,9.0,18.0,82,0.00,,---,0.00,VWS V14.01,2013-02-15 10:34:00,
2013-02-15 04:39:00,36.9,31.9,30.33,North,357,9.0,18.0,82,0.00,,---,0.00,VWS V14.01,2013-02-15 10:39:00,
2013-02-15 04:44:00,36.7,31.7,30.33,NNW,348,12.0,18.0,82,0.00,,---,0.00,VWS V14.01,2013-02-15 10:44:00,
2013-02-15 04:49:00,36.5,31.2,30.33,North,352,9.0,18.0,81,0.00,,---,0.00,VWS V14.01,2013-02-15 10:49:00,
2013-02-15 04:54:00,36.4,31.1,30.33,North,360,9.0,18.0,81,0.00,,---,0.00,VWS V14.01,2013-02-15 10:54:00,
2013-02-15 04:59:00,36.2,30.9,30.33,North,350,9.0,18.0,81,0.00,,---,0.00,VWS V14.01,2013-02-15 10:59:00,
2013-02-15 05:04:00,36.0,30.4,30.33,NNE,14,12.0,16.0,80,0.00,,---,0.00,VWS V14.01,2013-02-15 11:04:00,
2013-02-15 05:09:00,36.0,30.1,30.33,NNE,17,9.0,16.0,79,0.00,,---,0.00,VWS V14.01,2013-02-15 11:09:00,
2013-02-15 05:15:00,36.0,29.5,30.34,North,357,9.0,16.0,77,0.00,,---,0.00,VWS V14.01,2013-02-15 11:15:00,
2013-02-15 05:20:00,35.9,29.1,30.33,NNE,18,12.0,17.0,76,0.00,,---,0.00,VWS V14.01,2013-02-15 11:20:00,
2013-02-15 05:25:00,35.8,29.3,30.34,North,1,9.0,17.0,77,0.00,,---,0.00,VWS V14.01,2013-02-15 11:25:00,
2013-02-15 05:30:00,35.5,29.6,30.34,NNW,336,8.0,17.0,79,0.00,,---,0.00,VWS V14.01,2013-02-15 11:30:00,
2013-02-15 05:35:00,35.5,29.3,30.34,North,11,14.0,14.0,78,0.00,,---,0.00,VWS V14.01,2013-02-15 11:35:00,
2013-02-15 05:40:00,35.4,28.9,30.34,NNW,340,12.0,14.0,77,0.00,,---,0.00,VWS V14.01,2013-02-15 11:40:00,
2013-02-15 05:45:00,35.5,28.7,30.35,NNW,333,5.0,15.0,76,0.00,,---,0.00,VWS V14.01,2013-02-15 11:45:00,
2013-02-15 05:50:00,35.5,28.0,30.35,NNE,18,11.0,15.0,74,0.00,,---,0.00,VWS V14.01,2013-02-15 11:50:00,
2013-02-15 05:55:00,35.6,28.1,30.36,NNW,342,7.0,15.0,74,0.00,,---,0.00,VWS V14.01,2013-02-15 11:55:00,
2013-02-15 06:01:00,35.6,28.1,30.36,NNE,28,8.0,15.0,74,0.00,,---,0.00,VWS V14.01,2013-02-15 12:01:00,
2013-02-15 06:06:00,35.6,27.8,30.36,North,355,7.0,12.0,73,0.00,,---,0.00,VWS V14.01,2013-02-15 12:06:00,
2013-02-15 06:11:00,35.5,28.0,30.37,North,11,9.0,12.0,74,0.00,,---,0.00,VWS V14.01,2013-02-15 12:11:00,
2013-02-15 06:16:00,35.6,28.1,30.37,North,356,9.0,12.0,74,0.00,,---,0.00,VWS V14.01,2013-02-15 12:16:00,
2013-02-15 06:21:00,35.7,27.9,30.37,North,349,8.0,12.0,73,0.00,,---,0.00,VWS V14.01,2013-02-15 12:21:00,
2013-02-15 06:26:00,35.8,28.0,30.38,NW,323,5.0,12.0,73,0.00,,---,0.00,VWS V14.01,2013-02-15 12:26:00,
2013-02-15 06:31:00,35.9,27.8,30.38,NNW,341,7.0,10.0,72,0.00,,---,0.00,VWS V14.01,2013-02-15 12:31:00,
2013-02-15 06:36:00,36.0,27.5,30.39,North,349,7.0,14.0,71,0.00,,---,0.00,VWS V14.01,2013-02-15 12:36:00,
2013-02-15 06:41:00,36.2,27.0,30.39,North,8,12.0,16.0,69,0.00,,---,0.00,VWS V14.01,2013-02-15 12:41:00,
2013-02-15 06:46:00,36.3,26.4,30.39,North,9,17.0,17.0,67,0.00,,---,0.00,VWS V14.01,2013-02-15 12:46:00,
2013-02-15 06:52:00,36.3,26.8,30.38,North,352,11.0,17.0,68,0.00,,---,0.00,VWS V14.01,2013-02-15 12:52:00,
2013-02-15 06:57:00,36.3,26.4,30.39,NNW,347,11.0,18.0,67,0.00,,---,0.00,VWS V14.01,2013-02-15 12:57:00,
2013-02-15 07:02:00,36.2,26.3,30.39,North,1,10.0,17.0,67,0.00,,---,0.00,VWS V14.01,2013-02-15 13:02:00,
2013-02-15 07:07:00,36.1,26.6,30.39,North,8,10.0,17.0,68,0.00,,---,0.00,VWS V14.01,2013-02-15 13:07:00,
2013-02-15 07:12:00,36.0,26.8,30.39,NW,304,7.0,17.0,69,0.00,,---,0.00,VWS V14.01,2013-02-15 13:12:00,
2013-02-15 07:17:00,36.0,26.5,30.40,NW,314,7.0,17.0,68,0.00,,---,0.00,VWS V14.01,2013-02-15 13:17:00,
2013-02-15 07:22:00,35.9,26.0,30.39,North,354,6.0,17.0,67,0.00,,---,0.00,VWS V14.01,2013-02-15 13:22:00,
2013-02-15 07:27:00,35.8,25.9,30.40,North,9,11.0,17.0,67,0.00,,---,0.00,VWS V14.01,2013-02-15 13:27:00,
2013-02-15 07:32:00,35.7,25.5,30.40,NNE,13,11.0,13.0,66,0.00,,---,0.00,VWS V14.01,2013-02-15 13:32:00,
2013-02-15 07:38:00,35.7,25.1,30.40,North,354,9.0,13.0,65,0.00,,---,0.00,VWS V14.01,2013-02-15 13:38:00,
2013-02-15 07:43:00,35.6,24.6,30.40,NE,45,14.0,14.0,64,0.00,,---,0.00,VWS V14.01,2013-02-15 13:43:00,
2013-02-15 07:48:00,35.6,24.6,30.40,NNE,13,11.0,17.0,64,0.00,,---,0.00,VWS V14.01,2013-02-15 13:48:00,
2013-02-15 07:53:00,35.5,24.5,30.40,North,11,10.0,17.0,64,0.00,,---,0.00,VWS V14.01,2013-02-15 13:53:00,
2013-02-15 07:58:00,35.5,24.5,30.40,North,7,11.0,17.0,64,0.00,,---,0.00,VWS V14.01,2013-02-15 13:58:00,
2013-02-15 08:03:00,35.4,24.5,30.41,NNE,24,7.0,13.0,64,0.00,,---,0.00,VWS V14.01,2013-02-15 14:03:00,
2013-02-15 08:08:00,35.3,24.7,30.41,NNE,15,8.0,13.0,65,0.00,,---,0.00,VWS V14.01,2013-02-15 14:08:00,
2013-02-15 08:13:00,35.3,24.7,30.42,NNW,339,6.0,13.0,65,0.00,,---,0.00,VWS V14.01,2013-02-15 14:13:00,
2013-02-15 08:18:00,35.3,24.7,30.41,NE,40,6.0,13.0,65,0.00,,---,0.00,VWS V14.01,2013-02-15 14:18:00,
2013-02-15 08:24:00,35.3,25.1,30.42,NNE,27,5.0,13.0,66,0.00,,---,0.00,VWS V14.01,2013-02-15 14:24:00,
2013-02-15 08:29:00,35.4,25.2,30.42,NNE,28,6.0,13.0,66,0.00,,---,0.00,VWS V14.01,2013-02-15 14:29:00,
2013-02-15 08:34:00,35.5,25.3,30.42,North,360,4.0,8.0,66,0.00,,---,0.00,VWS V14.01,2013-02-15 14:34:00,
2013-02-15 08:39:00,35.5,24.9,30.43,NNW,336,8.0,10.0,65,0.00,,---,0.00,VWS V14.01,2013-02-15 14:39:00,
2013-02-15 08:44:00,35.5,24.9,30.43,North,349,8.0,12.0,65,0.00,,---,0.00,VWS V14.01,2013-02-15 14:44:00,
2013-02-15 08:49:00,35.6,25.0,30.43,North,349,6.0,12.0,65,0.00,,---,0.00,VWS V14.01,2013-02-15 14:49:00,
2013-02-15 08:54:00,35.9,24.9,30.43,NNE,26,9.0,14.0,64,0.00,,---,0.00,VWS V14.01,2013-02-15 14:54:00,
2013-02-15 08:59:00,36.2,25.2,30.44,NNE,25,12.0,14.0,64,0.00,,---,0.00,VWS V14.01,2013-02-15 14:59:00,
2013-02-15 09:05:00,36.5,25.1,30.44,North,8,8.0,13.0,63,0.00,,---,0.00,VWS V14.01,2013-02-15 15:05:00,
2013-02-15 09:10:00,36.7,24.5,30.44,NNE,30,10.0,13.0,61,0.00,,---,0.00,VWS V14.01,2013-02-15 15:10:00,
2013-02-15 09:15:00,36.9,24.3,30.44,NW,321,12.0,17.0,60,0.00,,---,0.00,VWS V14.01,2013-02-15 15:15:00,
2013-02-15 09:20:00,36.9,23.9,30.44,NNW,342,10.0,17.0,59,0.00,,---,0.00,VWS V14.01,2013-02-15 15:20:00,
2013-02-15 09:25:00,36.8,23.8,30.44,NE,45,12.0,17.0,59,0.00,,---,0.00,VWS V14.01,2013-02-15 15:25:00,
2013-02-15 09:30:00,36.4,24.2,30.44,North,1,12.0,17.0,61,0.00,,---,0.00,VWS V14.01,2013-02-15 15:30:00,
2013-02-15 09:35:00,36.3,24.5,30.45,NNE,18,13.0,16.0,62,0.00,,---,0.00,VWS V14.01,2013-02-15 15:35:00,
2013-02-15 09:40:00,36.4,24.6,30.44,NNE,26,10.0,16.0,62,0.00,,---,0.00,VWS V14.01,2013-02-15 15:40:00,
2013-02-15 09:45:00,36.5,24.3,30.45,NW,326,10.0,16.0,61,0.00,,---,0.00,VWS V14.01,2013-02-15 15:45:00,
2013-02-15 09:50:00,36.6,24.4,30.45,NNE,12,14.0,18.0,61,0.00,,---,0.00,VWS V14.01,2013-02-15 15:50:00,
2013-02-15 09:56:00,36.8,24.6,30.45,NNE,20,12.0,18.0,61,0.00,,---,0.00,VWS V14.01,2013-02-15 15:56:00,
2013-02-15 10:01:00,36.7,24.5,30.45,NNE,21,9.0,18.0,61,0.00,,---,0.00,VWS V14.01,2013-02-15 16:01:00,
2013-02-15 10:06:00,37.3,25.1,30.45,NNE,23,14.0,16.0,61,0.00,,---,0.00,VWS V14.01,2013-02-15 16:06:00,
2013-02-15 10:11:00,37.2,25.4,30.45,NNE,19,12.0,16.0,62,0.00,,---,0.00,VWS V14.01,2013-02-15 16:11:00,
2013-02-15 10:16:00,36.9,24.7,30.46,NNE,19,10.0,17.0,61,0.00,,---,0.00,VWS V14.01,2013-02-15 16:16:00,
2013-02-15 10:21:00,37.0,24.8,30.46,NE,36,9.0,17.0,61,0.00,,---,0.00,VWS V14.01,2013-02-15 16:21:00,
2013-02-15 10:26:00,36.9,24.7,30.45,NNE,27,12.0,17.0,61,0.00,,---,0.00,VWS V14.01,2013-02-15 16:26:00,
2013-02-15 10:31:00,36.8,25.0,30.45,NE,41,12.0,12.0,62,0.00,,---,0.00,VWS V14.01,2013-02-15 16:31:00,
2013-02-15 10:36:00,36.7,24.9,30.45,NNE,21,8.0,13.0,62,0.00,,---,0.00,VWS V14.01,2013-02-15 16:36:00,
2013-02-15 10:42:00,36.7,25.3,30.45,North,351,8.0,13.0,63,0.00,,---,0.00,VWS V14.01,2013-02-15 16:42:00,
2013-02-15 10:47:00,36.7,23.3,30.45,NE,44,8.0,14.0,58,0.00,,---,0.00,VWS V14.01,2013-02-15 16:47:00,
2013-02-15 10:52:00,36.7,23.7,30.45,NE,36,11.0,14.0,59,0.00,,---,0.00,VWS V14.01,2013-02-15 16:52:00,
2013-02-15 10:57:00,36.9,24.7,30.45,NE,41,11.0,14.0,61,0.00,,---,0.00,VWS V14.01,2013-02-15 16:57:00,
2013-02-15 11:02:00,37.0,24.4,30.45,NE,44,11.0,11.0,60,0.00,,---,0.00,VWS V14.01,2013-02-15 17:02:00,
2013-02-15 11:07:00,36.9,23.5,30.46,North,349,6.0,13.0,58,0.00,,---,0.00,VWS V14.01,2013-02-15 17:07:00,
2013-02-15 11:12:00,37.1,24.5,30.46,NNE,20,11.0,13.0,60,0.00,,---,0.00,VWS V14.01,2013-02-15 17:12:00,
2013-02-15 11:17:00,37.3,24.3,30.46,North,11,8.0,13.0,59,0.00,,---,0.00,VWS V14.01,2013-02-15 17:17:00,
2013-02-15 11:22:00,37.9,24.9,30.46,NNE,16,10.0,15.0,59,0.00,,---,0.00,VWS V14.01,2013-02-15 17:22:00,
2013-02-15 11:28:00,38.4,25.7,30.46,NNW,347,8.0,15.0,60,0.00,,---,0.00,VWS V14.01,2013-02-15 17:28:00,
2013-02-15 11:33:00,38.9,25.8,30.46,NNW,330,7.0,12.0,59,0.00,,---,0.00,VWS V14.01,2013-02-15 17:33:00,
2013-02-15 11:38:00,39.1,25.2,30.45,NW,309,5.0,12.0,57,0.00,,---,0.00,VWS V14.01,2013-02-15 17:38:00,
2013-02-15 11:43:00,39.5,26.0,30.46,NW,323,6.0,12.0,58,0.00,,---,0.00,VWS V14.01,2013-02-15 17:43:00,
2013-02-15 11:48:00,39.1,24.3,30.45,North,1,11.0,13.0,55,0.00,,---,0.00,VWS V14.01,2013-02-15 17:48:00,
2013-02-15 11:53:00,39.2,25.7,30.45,North,11,7.0,16.0,58,0.00,,---,0.00,VWS V14.01,2013-02-15 17:53:00,
2013-02-15 11:58:00,39.6,25.2,30.45,NNE,18,11.0,16.0,56,0.00,,---,0.00,VWS V14.01,2013-02-15 17:58:00,
2013-02-15 12:03:00,39.3,24.1,30.45,NNW,335,8.0,12.0,54,0.00,,---,0.00,VWS V14.01,2013-02-15 18:03:00,
2013-02-15 12:08:00,39.5,24.7,30.45,NNE,14,4.0,12.0,55,0.00,,---,0.00,VWS V14.01,2013-02-15 18:08:00,
2013-02-15 12:13:00,39.5,23.8,30.44,North,1,12.0,12.0,53,0.00,,---,0.00,VWS V14.01,2013-02-15 18:13:00,
2013-02-15 12:19:00,39.6,24.3,30.44,NNE,25,9.0,14.0,54,0.00,,---,0.00,VWS V14.01,2013-02-15 18:19:00,
2013-02-15 12:24:00,39.9,23.7,30.44,NNE,15,4.0,14.0,52,0.00,,---,0.00,VWS V14.01,2013-02-15 18:24:00,
2013-02-15 12:29:00,39.9,23.7,30.44,NNW,347,8.0,14.0,52,0.00,,---,0.00,VWS V14.01,2013-02-15 18:29:00,
2013-02-15 12:34:00,40.5,25.2,30.44,North,5,9.0,12.0,54,0.00,,---,0.00,VWS V14.01,2013-02-15 18:34:00,
2013-02-15 12:39:00,40.6,24.4,30.44,North,9,15.0,15.0,52,0.00,,---,0.00,VWS V14.01,2013-02-15 18:39:00,
2013-02-15 12:44:00,40.6,23.9,30.44,NW,316,7.0,15.0,51,0.00,,---,0.00,VWS V14.01,2013-02-15 18:44:00,
2013-02-15 12:49:00,40.8,24.5,30.43,NW,323,10.0,15.0,52,0.00,,---,0.00,VWS V14.01,2013-02-15 18:49:00,
2013-02-15 12:54:00,41.3,23.6,30.43,NW,325,6.0,15.0,49,0.00,,---,0.00,VWS V14.01,2013-02-15 18:54:00,
2013-02-15 12:59:00,41.6,23.9,30.43,NNW,333,11.0,15.0,49,0.00,,---,0.00,VWS V14.01,2013-02-15 18:59:00,
2013-02-15 13:05:00,41.9,24.1,30.42,NNW,339,9.0,11.0,49,0.00,,---,0.00,VWS V14.01,2013-02-15 19:05:00,
2013-02-15 13:10:00,42.0,23.8,30.42,WNW,295,1.0,11.0,48,0.00,,---,0.00,VWS V14.01,2013-02-15 19:10:00,
2013-02-15 13:15:00,42.5,23.7,30.41,NNW,329,9.0,12.0,47,0.00,,---,0.00,VWS V14.01,2013-02-15 19:15:00,
2013-02-15 13:20:00,42.6,24.3,30.42,NNE,20,4.0,12.0,48,0.00,,---,0.00,VWS V14.01,2013-02-15 19:20:00,
2013-02-15 13:25:00,42.6,23.8,30.41,NNW,345,4.0,12.0,47,0.00,,---,0.00,VWS V14.01,2013-02-15 19:25:00,
2013-02-15 13:30:00,43.0,25.2,30.41,NNW,347,7.0,12.0,49,0.00,,---,0.00,VWS V14.01,2013-02-15 19:30:00,
2013-02-15 13:35:00,43.6,24.7,30.41,North,9,4.0,10.0,47,0.00,,---,0.00,VWS V14.01,2013-02-15 19:35:00,
2013-02-15 13:40:00,43.3,24.4,30.40,North,350,8.0,11.0,47,0.00,,---,0.00,VWS V14.01,2013-02-15 19:40:00,
2013-02-15 13:45:00,43.6,24.7,30.40,NE,56,2.0,11.0,47,0.00,,---,0.00,VWS V14.01,2013-02-15 19:45:00,
2013-02-15 13:51:00,43.9,24.0,30.40,NE,47,3.0,11.0,45,0.00,,---,0.00,VWS V14.01,2013-02-15 19:51:00,
2013-02-15 13:56:00,44.5,24.5,30.40,North,359,0.0,11.0,45,0.00,,---,0.00,VWS V14.01,2013-02-15 19:56:00,
2013-02-15 14:01:00,45.1,24.5,30.39,NNW,337,7.0,7.0,44,0.00,,---,0.00,VWS V14.01,2013-02-15 20:01:00,
2013-02-15 14:06:00,45.1,24.5,30.39,North,11,12.0,17.0,44,0.00,,---,0.00,VWS V14.01,2013-02-15 20:06:00,
2013-02-15 14:11:00,44.5,24.0,30.39,NE,35,10.0,17.0,44,0.00,,---,0.00,VWS V14.01,2013-02-15 20:11:00,
2013-02-15 14:16:00,44.1,23.6,30.39,NNE,16,7.0,17.0,44,0.00,,---,0.00,VWS V14.01,2013-02-15 20:16:00,
2013-02-15 14:21:00,43.8,24.4,30.38,NE,53,1.0,17.0,46,0.00,,---,0.00,VWS V14.01,2013-02-15 20:21:00,
2013-02-15 14:27:00,44.0,24.0,30.38,ENE,65,1.0,17.0,45,0.00,,---,0.00,VWS V14.01,2013-02-15 20:27:00,
2013-02-15 14:32:00,44.6,25.1,30.38,North,356,5.0,7.0,46,0.00,,---,0.00,VWS V14.01,2013-02-15 20:32:00,
2013-02-15 14:37:00,44.9,24.9,30.38,NW,324,4.0,7.0,45,0.00,,---,0.00,VWS V14.01,2013-02-15 20:37:00,
2013-02-15 14:42:00,44.7,24.1,30.38,NE,50,1.0,10.0,44,0.00,,---,0.00,VWS V14.01,2013-02-15 20:42:00,
2013-02-15 14:47:00,45.0,24.4,30.38,NE,39,4.0,11.0,44,0.00,,---,0.00,VWS V14.01,2013-02-15 20:47:00,
2013-02-15 14:52:00,45.0,24.4,30.38,North,355,6.0,11.0,44,0.00,,---,0.00,VWS V14.01,2013-02-15 20:52:00,
2013-02-15 14:57:00,44.7,24.7,30.38,North,6,3.0,11.0,45,0.00,,---,0.00,VWS V14.01,2013-02-15 20:57:00,
2013-02-15 15:02:00,45.3,26.8,30.38,NW,323,5.0,7.0,48,0.00,,---,0.00,VWS V14.01,2013-02-15 21:02:00,
2013-02-15 15:08:00,45.7,25.6,30.38,NNE,30,4.0,11.0,45,0.00,,---,0.00,VWS V14.01,2013-02-15 21:08:00,
2013-02-15 15:13:00,45.5,25.4,30.38,NW,315,5.0,11.0,45,0.00,,---,0.00,VWS V14.01,2013-02-15 21:13:00,
2013-02-15 15:18:00,46.0,26.4,30.38,NNE,27,4.0,11.0,46,0.00,,---,0.00,VWS V14.01,2013-02-15 21:18:00,
2013-02-15 15:23:00,46.0,26.9,30.38,NW,326,6.0,13.0,47,0.00,,---,0.00,VWS V14.01,2013-02-15 21:23:00,
2013-02-15 15:28:00,46.1,26.5,30.37,NW,315,5.0,13.0,46,0.00,,---,0.00,VWS V14.01,2013-02-15 21:28:00,
2013-02-15 15:33:00,46.1,25.4,30.37,NW,315,1.0,4.0,44,0.00,,---,0.00,VWS V14.01,2013-02-15 21:33:00,
2013-02-15 15:38:00,46.4,26.2,30.37,NW,323,7.0,10.0,45,0.00,,---,0.00,VWS V14.01,2013-02-15 21:38:00,
2013-02-15 15:44:00,45.9,25.8,30.37,North,8,5.0,10.0,45,0.00,,---,0.00,VWS V14.01,2013-02-15 21:44:00,
2013-02-15 15:49:00,45.7,25.6,30.37,WNW,302,2.0,10.0,45,0.00,,---,0.00,VWS V14.01,2013-02-15 21:49:00,
2013-02-15 15:54:00,45.3,25.2,30.38,WNW,289,2.0,10.0,45,0.00,,---,0.00,VWS V14.01,2013-02-15 21:54:00,
2013-02-15 15:59:00,45.0,26.0,30.38,North,349,7.0,10.0,47,0.00,,---,0.00,VWS V14.01,2013-02-15 21:59:00,
2013-02-15 16:04:00,44.7,24.7,30.38,NNW,342,4.0,7.0,45,0.00,,---,0.00,VWS V14.01,2013-02-15 22:04:00,
2013-02-15 16:09:00,44.7,26.2,30.38,NW,316,5.0,7.0,48,0.00,,---,0.00,VWS V14.01,2013-02-15 22:09:00,
2013-02-15 16:14:00,44.6,25.6,30.38,NW,324,6.0,9.0,47,0.00,,---,0.00,VWS V14.01,2013-02-15 22:14:00,
2013-02-15 16:19:00,44.6,25.6,30.38,NW,322,4.0,9.0,47,0.00,,---,0.00,VWS V14.01,2013-02-15 22:19:00,
2013-02-15 16:25:00,44.6,26.1,30.38,NW,314,3.0,9.0,48,0.00,,---,0.00,VWS V14.01,2013-02-15 22:25:00,
2013-02-15 16:30:00,44.8,26.3,30.38,NNW,333,4.0,9.0,48,0.00,,---,0.00,VWS V14.01,2013-02-15 22:30:00,
2013-02-15 16:35:00,44.9,25.9,30.38,NNE,14,6.0,10.0,47,0.00,,---,0.00,VWS V14.01,2013-02-15 22:35:00,
2013-02-15 16:40:00,45.1,27.1,30.38,NNE,17,7.0,10.0,49,0.00,,---,0.00,VWS V14.01,2013-02-15 22:40:00,
2013-02-15 16:45:00,45.5,26.5,30.38,NNW,342,8.0,10.0,47,0.00,,---,0.00,VWS V14.01,2013-02-15 22:45:00,
2013-02-15 16:50:00,45.3,25.8,30.38,NE,47,7.0,11.0,46,0.00,,---,0.00,VWS V14.01,2013-02-15 22:50:00,
2013-02-15 16:55:00,45.3,25.8,30.38,NNW,345,9.0,11.0,46,0.00,,---,0.00,VWS V14.01,2013-02-15 22:55:00,
2013-02-15 17:00:00,45.4,25.9,30.38,North,350,7.0,11.0,46,0.00,,---,0.00,VWS V14.01,2013-02-15 23:00:00,
2013-02-15 17:06:00,45.3,26.3,30.39,NE,39,6.0,10.0,47,0.00,,---,0.00,VWS V14.01,2013-02-15 23:06:00,
2013-02-15 17:11:00,45.0,26.0,30.39,NE,39,9.0,11.0,47,0.00,,---,0.00,VWS V14.01,2013-02-15 23:11:00,
2013-02-15 17:16:00,44.8,25.8,30.39,NNE,25,5.0,11.0,47,0.00,,---,0.00,VWS V14.01,2013-02-15 23:16:00,
2013-02-15 17:21:00,44.8,25.8,30.39,NNW,338,3.0,11.0,47,0.00,,---,0.00,VWS V14.01,2013-02-15 23:21:00,
2013-02-15 17:26:00,44.8,25.3,30.38,NE,47,4.0,11.0,46,0.00,,---,0.00,VWS V14.01,2013-02-15 23:26:00,
2013-02-15 17:31:00,44.8,26.3,30.38,NNW,333,6.0,7.0,48,0.00,,---,0.00,VWS V14.01,2013-02-15 23:31:00,
2013-02-15 17:36:00,44.6,25.6,30.39,North,6,7.0,10.0,47,0.00,,---,0.00,VWS V14.01,2013-02-15 23:36:00,
2013-02-15 17:41:00,44.4,24.4,30.38,North,1,7.0,10.0,45,0.00,,---,0.00,VWS V14.01,2013-02-15 23:41:00,
2013-02-15 17:47:00,44.2,24.8,30.39,NNE,21,6.0,12.0,46,0.00,,---,0.00,VWS V14.01,2013-02-15 23:47:00,
2013-02-15 17:52:00,43.9,24.0,30.38,NNE,27,5.0,12.0,45,0.00,,---,0.00,VWS V14.01,2013-02-15 23:52:00,
2013-02-15 17:57:00,43.8,24.9,30.38,ENE,58,3.0,12.0,47,0.00,,---,0.00,VWS V14.01,2013-02-15 23:57:00,
2013-02-15 18:02:00,43.6,25.7,30.38,ENE,66,5.0,5.0,49,0.00,,---,0.00,VWS V14.01,2013-02-16 00:02:00,
2013-02-15 18:07:00,43.3,25.4,30.38,ENE,60,3.0,5.0,49,0.00,,---,0.00,VWS V14.01,2013-02-16 00:07:00,
2013-02-15 18:12:00,42.9,25.6,30.38,ENE,62,3.0,5.0,50,0.00,,---,0.00,VWS V14.01,2013-02-16 00:12:00,
2013-02-15 18:17:00,42.5,25.7,30.38,East,79,3.0,5.0,51,0.00,,---,0.00,VWS V14.01,2013-02-16 00:17:00,
2013-02-15 18:22:00,42.0,26.6,30.38,East,80,3.0,5.0,54,0.00,,---,0.00,VWS V14.01,2013-02-16 00:22:00,
2013-02-15 18:28:00,41.5,27.0,30.38,East,86,3.0,5.0,56,0.00,,---,0.00,VWS V14.01,2013-02-16 00:28:00,
2013-02-15 18:33:00,41.0,27.0,30.38,ESE,110,2.0,3.0,57,0.00,,---,0.00,VWS V14.01,2013-02-16 00:33:00,
2013-02-15 18:38:00,40.5,26.9,30.38,ESE,113,2.0,4.0,58,0.00,,---,0.00,VWS V14.01,2013-02-16 00:38:00,
2013-02-15 18:43:00,40.1,26.9,30.38,ESE,104,3.0,4.0,59,0.00,,---,0.00,VWS V14.01,2013-02-16 00:43:00,
2013-02-15 18:48:00,39.7,27.0,30.38,East,90,2.0,4.0,60,0.00,,---,0.00,VWS V14.01,2013-02-16 00:48:00,
2013-02-15 18:53:00,39.4,27.1,30.38,ESE,103,2.0,4.0,61,0.00,,---,0.00,VWS V14.01,2013-02-16 00:53:00,
2013-02-15 18:58:00,39.1,26.8,30.38,East,96,3.0,4.0,61,0.00,,---,0.00,VWS V14.01,2013-02-16 00:58:00,
2013-02-15 19:04:00,38.9,26.6,30.38,East,91,3.0,5.0,61,0.00,,---,0.00,VWS V14.01,2013-02-16 01:04:00,
2013-02-15 19:09:00,38.7,26.8,30.38,ESE,108,3.0,5.0,62,0.00,,---,0.00,VWS V14.01,2013-02-16 01:09:00,
2013-02-15 19:14:00,38.7,26.8,30.38,ESE,103,4.0,5.0,62,0.00,,---,0.00,VWS V14.01,2013-02-16 01:14:00,
2013-02-15 19:19:00,38.6,26.7,30.38,East,101,5.0,5.0,62,0.00,,---,0.00,VWS V14.01,2013-02-16 01:19:00,
2013-02-15 19:25:00,38.4,26.9,30.38,ESE,103,3.0,5.0,63,0.00,,---,0.00,VWS V14.01,2013-02-16 01:25:00,
2013-02-15 19:30:00,38.3,26.4,30.38,ESE,113,4.0,5.0,62,0.00,,---,0.00,VWS V14.01,2013-02-16 01:30:00,
2013-02-15 19:35:00,38.2,26.3,30.38,East,101,3.0,5.0,62,0.00,,---,0.00,VWS V14.01,2013-02-16 01:35:00,
2013-02-15 19:40:00,38.2,26.3,30.38,East,98,3.0,5.0,62,0.00,,---,0.00,VWS V14.01,2013-02-16 01:40:00,
2013-02-15 19:45:00,38.0,26.5,30.38,ESE,120,3.0,5.0,63,0.00,,---,0.00,VWS V14.01,2013-02-16 01:45:00,
2013-02-15 19:50:00,37.8,26.7,30.38,ESE,103,4.0,6.0,64,0.00,,---,0.00,VWS V14.01,2013-02-16 01:50:00,
2013-02-15 19:55:00,37.8,26.0,30.39,East,95,5.0,6.0,62,0.00,,---,0.00,VWS V14.01,2013-02-16 01:55:00,
2013-02-15 20:00:00,37.6,25.8,30.38,ESE,113,3.0,6.0,62,0.00,,---,0.00,VWS V14.01,2013-02-16 02:00:00,
2013-02-15 20:06:00,37.6,25.8,30.38,SE,128,3.0,5.0,62,0.00,,---,0.00,VWS V14.01,2013-02-16 02:06:00,
2013-02-15 20:11:00,37.2,25.8,30.38,ESE,113,2.0,5.0,63,0.00,,---,0.00,VWS V14.01,2013-02-16 02:11:00,
2013-02-15 20:16:00,36.6,26.0,30.38,SE,128,2.0,5.0,65,0.00,,---,0.00,VWS V14.01,2013-02-16 02:16:00,
2013-02-15 20:21:00,36.3,26.0,30.38,ESE,105,3.0,5.0,66,0.00,,---,0.00,VWS V14.01,2013-02-16 02:21:00,
2013-02-15 20:26:00,36.4,25.8,30.38,ESE,115,2.0,5.0,65,0.00,,---,0.00,VWS V14.01,2013-02-16 02:26:00,
2013-02-15 20:31:00,36.4,25.8,30.39,SE,127,2.0,3.0,65,0.00,,---,0.00,VWS V14.01,2013-02-16 02:31:00,
2013-02-15 20:36:00,36.1,25.9,30.38,ESE,108,2.0,4.0,66,0.00,,---,0.00,VWS V14.01,2013-02-16 02:36:00,
2013-02-15 20:41:00,35.9,25.7,30.38,SE,132,5.0,6.0,66,0.00,,---,0.00,VWS V14.01,2013-02-16 02:41:00,
2013-02-15 20:46:00,35.7,25.8,30.38,ESE,113,4.0,6.0,67,0.00,,---,0.00,VWS V14.01,2013-02-16 02:46:00,
2013-02-15 20:52:00,35.7,25.8,30.38,SE,127,3.0,6.0,67,0.00,,---,0.00,VWS V14.01,2013-02-16 02:52:00,
2013-02-15 20:57:00,35.6,26.1,30.38,SE,141,3.0,6.0,68,0.00,,---,0.00,VWS V14.01,2013-02-16 02:57:00,
2013-02-15 21:02:00,35.6,26.1,30.38,SSE,151,4.0,4.0,68,0.00,,---,0.00,VWS V14.01,2013-02-16 03:02:00,
2013-02-15 21:07:00,35.6,26.1,30.38,SE,131,5.0,5.0,68,0.00,,---,0.00,VWS V14.01,2013-02-16 03:07:00,
2013-02-15 21:12:00,35.7,25.8,30.39,SSE,152,3.0,6.0,67,0.00,,---,0.00,VWS V14.01,2013-02-16 03:12:00,
2013-02-15 21:17:00,35.4,26.3,30.38,SSE,163,3.0,6.0,69,0.00,,---,0.00,VWS V14.01,2013-02-16 03:17:00,
2013-02-15 21:22:00,34.7,25.9,30.38,South,169,3.0,6.0,70,0.00,,---,0.00,VWS V14.01,2013-02-16 03:22:00,
2013-02-15 21:27:00,33.9,25.8,30.38,South,183,3.0,6.0,72,0.00,,---,0.00,VWS V14.01,2013-02-16 03:27:00,
2013-02-15 21:33:00,33.6,26.2,30.38,SSE,166,6.0,7.0,74,0.00,,---,0.00,VWS V14.01,2013-02-16 03:33:00,
2013-02-15 21:38:00,33.4,26.3,30.38,SE,146,5.0,7.0,75,0.00,,---,0.00,VWS V14.01,2013-02-16 03:38:00,
2013-02-15 21:43:00,33.3,26.6,30.38,SSE,152,4.0,7.0,76,0.00,,---,0.00,VWS V14.01,2013-02-16 03:43:00,
2013-02-15 21:48:00,33.5,26.8,30.38,SE,145,4.0,8.0,76,0.00,,---,0.00,VWS V14.01,2013-02-16 03:48:00,
2013-02-15 21:53:00,33.6,26.9,30.38,SSW,193,4.0,8.0,76,0.00,,---,0.00,VWS V14.01,2013-02-16 03:53:00,
2013-02-15 21:58:00,33.5,26.8,30.38,SSE,162,3.0,8.0,76,0.00,,---,0.00,VWS V14.01,2013-02-16 03:58:00,
2013-02-15 22:03:00,33.5,27.1,30.39,SSW,193,4.0,5.0,77,0.00,,---,0.00,VWS V14.01,2013-02-16 04:03:00,
2013-02-15 22:08:00,33.4,27.0,30.39,South,189,3.0,5.0,77,0.00,,---,0.00,VWS V14.01,2013-02-16 04:08:00,
2013-02-15 22:13:00,33.1,27.3,30.39,SSW,204,2.0,5.0,79,0.00,,---,0.00,VWS V14.01,2013-02-16 04:13:00,
2013-02-15 22:19:00,32.7,26.9,30.39,WSW,257,2.0,5.0,79,0.00,,---,0.00,VWS V14.01,2013-02-16 04:19:00,
2013-02-15 22:24:00,32.5,26.7,30.40,WSW,251,5.0,5.0,79,0.00,,---,0.00,VWS V14.01,2013-02-16 04:24:00,
2013-02-15 22:29:00,32.7,26.9,30.40,WSW,242,1.0,6.0,79,0.00,,---,0.00,VWS V14.01,2013-02-16 04:29:00,
2013-02-15 22:34:00,33.1,27.6,30.40,WSW,246,4.0,6.0,80,0.00,,---,0.00,VWS V14.01,2013-02-16 04:34:00,
2013-02-15 22:39:00,33.2,28.0,30.40,SW,229,2.0,6.0,81,0.00,,---,0.00,VWS V14.01,2013-02-16 04:39:00,
2013-02-15 22:44:00,33.1,27.6,30.40,SSW,213,4.0,6.0,80,0.00,,---,0.00,VWS V14.01,2013-02-16 04:44:00,
2013-02-15 22:49:00,33.0,27.8,30.39,SSW,210,4.0,7.0,81,0.00,,---,0.00,VWS V14.01,2013-02-16 04:49:00,
2013-02-15 22:55:00,32.9,28.0,30.39,SW,232,2.0,7.0,82,0.00,,---,0.00,VWS V14.01,2013-02-16 04:55:00,
2013-02-15 23:00:00,32.7,27.8,30.40,WSW,249,4.0,7.0,82,0.00,,---,0.00,VWS V14.01,2013-02-16 05:00:00,
2013-02-15 23:03:00,32.7,27.8,30.40,SW,225,6.0,8.0,82,0.00,,---,0.00,VWS V14.01,2013-02-16 05:03:00,
2013-02-15 23:08:00,32.6,27.7,30.40,WSW,245,5.0,11.0,82,0.00,,---,0.00,VWS V14.01,2013-02-16 05:08:00,
2013-02-15 23:13:00,32.8,28.2,30.40,South,177,5.0,11.0,83,0.00,,---,0.00,VWS V14.01,2013-02-16 05:13:00,
2013-02-15 23:18:00,32.8,28.2,30.40,SSW,201,4.0,11.0,83,0.00,,---,0.00,VWS V14.01,2013-02-16 05:18:00,
2013-02-15 23:23:00,32.8,28.2,30.40,SW,221,6.0,11.0,83,0.00,,---,0.00,VWS V14.01,2013-02-16 05:23:00,
2013-02-15 23:28:00,32.9,28.3,30.40,SSW,207,5.0,11.0,83,0.00,,---,0.00,VWS V14.01,2013-02-16 05:28:00,
2013-02-15 23:33:00,32.7,28.4,30.40,SSW,211,4.0,6.0,84,0.00,,---,0.00,VWS V14.01,2013-02-16 05:33:00,
2013-02-15 23:38:00,32.4,28.1,30.41,SSW,201,5.0,7.0,84,0.00,,---,0.00,VWS V14.01,2013-02-16 05:38:00,
2013-02-15 23:43:00,32.4,28.4,30.42,NNW,342,5.0,7.0,85,0.00,,---,0.00,VWS V14.01,2013-02-16 05:43:00,
2013-02-15 23:48:00,32.8,28.2,30.43,ENE,65,6.0,14.0,83,0.00,,---,0.00,VWS V14.01,2013-02-16 05:48:00,
2013-02-15 23:53:00,35.1,27.3,30.44,NNE,19,6.0,19.0,73,0.00,,---,0.00,VWS V14.01,2013-02-16 05:53:00,
2013-02-15 23:58:00,36.4,27.9,30.45,North,5,10.0,19.0,71,0.00,,---,0.00,VWS V14.01,2013-02-16 05:58:00,